This demonstration page uses our WeatherBlox Daily Observations layout. Learn more.

39.92423, -83.80882

Hourly Observations for August 31, 2017

Temp ( °F °C ) Dew Point ( °F °C ) Humidity (%) Winds ( mph kmh ) Pressure ( in mb ) Visibility ( mi km ) Precip ( " mm )
12:56 am 00:56 Clear 62 16.7 61 16.1 96 96 Calm 30.04 1017 10 16.0934 0 0
1:56 am 01:56 Clear 62 16.7 61 16.1 96 96 Calm 30.04 1017 10 16.0934 0 0
2:56 am 02:56 Clear with Mist and Fog 61 16.1 60 15.6 97 97 Calm 30.04 1017 6 9.65604 0 0
3:56 am 03:56 Partly Cloudy 61 16.1 60 15.6 97 97 Calm 30.05 1018 8 12.87472 0 0
4:56 am 04:56 Mostly Clear 61 16.1 59 15 93 93 Calm 30.04 1017 9 14.48406 0 0
5:56 am 05:56 Clear with Mist and Fog 60 15.6 59 15 96 96 Calm 30.05 1018 5 8.0467 0 0
6:56 am 06:56 Mostly Clear with Mist and Fog 59 15 58 14.4 96 96 Calm 30.07 1018 4 6.43736 0 0
7:21 am 07:21 Partly Cloudy with Mist and Fog 57 14 57 14 100 100 Calm 30.09 1019 1.75 2.816345 0 0
7:41 am 07:41 Sunny with Mist and Fog 57 14 57 14 100 100 Calm 30.09 1019 3 4.82802 0 0
7:56 am 07:56 Sunny 59 15 58 14.4 96 96 Calm 30.08 1019 10 16.0934 0 0
8:56 am 08:56 Cloudy 65 18.3 63 17.2 93 93 NNW 3 6 30.1 1019 7 11.26538 0 0
9:56 am 09:56 Sunny 68 20 63 17.2 84 84 NNE 5 7 30.09 1019 10 16.0934 0 0
10:56 am 10:56 Sunny 72 22.2 63 17.2 73 73 E 3 6 30.1 1019 10 16.0934 0 0
11:56 am 11:56 Sunny 73 22.8 62 16.7 69 69 ESE 5 7 30.09 1019 10 16.0934 0 0
12:56 pm 12:56 Mostly Cloudy 74 23.3 63 17.2 69 69 E 5 7 30.08 1019 10 16.0934 0 0
1:56 pm 13:56 Mostly Cloudy 78 25.6 62 16.7 58 58 NNW 6 9 30.06 1018 10 16.0934 0 0
2:56 pm 14:56 Mostly Sunny 78 25.6 61 16.1 56 56 NW 6 9 30.05 1018 10 16.0934 0 0
3:56 pm 15:56 Mostly Cloudy 76 24.4 63 17.2 64 64 NNE 10 17 30.04 1017 10 16.0934 0 0
4:56 pm 16:56 Mostly Cloudy 76 24.4 62 16.7 62 62 NNE 13 20 30.03 1017 10 16.0934 0 0
5:56 pm 17:56 Mostly Sunny 75 23.9 63 17.2 66 66 NE 15 24 30.03 1017 10 16.0934 0 0
6:56 pm 18:56 Sunny 70 21.1 61 16.1 73 73 NE 14 22 30.05 1018 10 16.0934 0 0
7:56 pm 19:56 Sunny 67 19.4 59 15 76 76 NE 14 22 30.07 1018 10 16.0934 0 0
8:56 pm 20:56 Clear 64 17.8 56 13.3 75 75 NE 20 31 30.07 1018 10 16.0934 0 0
9:56 pm 21:56 Clear 62 16.7 53 11.7 73 73 NE 14 22 30.09 1019 10 16.0934 0 0
10:56 pm 22:56 Clear 61 16.1 53 11.7 75 75 ENE 17 28 30.08 1019 10 16.0934 0 0
11:56 pm 23:56 Clear 60 15.6 51 10.6 72 72 ENE 18 30 30.09 1019 10 16.0934 0 0

Powered by AerisWeather